CW0682 Weather Reports


Display with metric or nautical units.
time (UTC)temp
F
wind
direction
speed
MPH
gust
MPH
rain 1hr
in
rain 24hr
in
rain mn
in
humidity
%
barometer
mb
20260507214501 69 238 4.0 12.0 0.00 0.00 0.00 21 1015.6
20260507213108 69 198 8.0 12.0 0.00 0.00 0.00 24 1015.8
20260507211557 69 229 11.0 18.0 0.00 0.00 0.00 26 1015.9
20260507210056 68 230 10.0 18.0 0.00 0.00 0.00 26 1016.0
20260507204601 68 252 10.0 18.0 0.00 0.00 0.00 26 1016.1
20260507203052 67 233 11.0 17.0 0.00 0.00 0.00 29 1016.2
20260507201549 66 233 13.0 18.0 0.00 0.00 0.00 30 1016.3
20260507200047 66 239 13.0 19.0 0.00 0.00 0.00 36 1016.5
20260507194547 66 235 11.0 20.0 0.00 0.00 0.00 36 1016.5
20260507193043 65 254 12.0 21.0 0.00 0.00 0.00 36 1016.6
20260507191541 64 248 10.0 17.0 0.00 0.00 0.00 41 1016.7
20260507190042 64 235 12.0 19.0 0.00 0.00 0.00 41 1016.8
20260507184539 64 194 9.0 17.0 0.00 0.00 0.00 42 1016.9
20260507183041 63 239 12.0 18.0 0.00 0.00 0.00 45 1016.9
20260507181534 62 227 13.0 18.0 0.00 0.00 0.00 44 1017.0
20260507180034 62 226 11.0 17.0 0.00 0.00 0.00 49 1017.0
20260507174536 61 234 15.0 19.0 0.00 0.00 0.00 49 1017.1
20260507173033 60 232 15.0 19.0 0.00 0.00 0.00 50 1017.1
20260507171525 60 230 15.0 18.0 0.00 0.00 0.00 53 1017.2
20260507170023 59 245 17.0 23.0 0.00 0.00 0.00 54 1017.2
20260507164523 58 238 13.0 20.0 0.00 0.00 0.00 59 1017.2
20260507163018 57 238 9.0 16.0 0.00 0.00 0.00 63 1017.2
20260507161516 57 221 10.0 16.0 0.00 0.00 0.00 65 1017.1
20260507160014 56 219 14.0 22.0 0.00 0.00 0.00 67 1017.2
20260507154509 55 236 16.0 23.0 0.00 0.00 0.00 69 1017.2
20260507153006 54 241 19.0 23.0 0.00 0.00 0.00 71 1017.0
20260507151504 54 234 18.0 24.0 0.00 0.00 0.00 73 1017.0
20260507150002 52 229 14.0 19.0 0.00 0.00 0.00 78 1017.0
20260507144602 50 219 10.0 18.0 0.00 0.00 0.00 81 1016.9
20260507143102 50 209 15.0 20.0 0.00 0.00 0.00 80 1016.8
20260507141602 0 0.0 0.0 0.00 0.00 0.00 1016.9
20260507140108 0 0.0 0.0 0.00 0.00 0.00 1016.4
20260507134547 0 0.0 0.0 0.00 0.00 0.00 1016.4
20260507133042 0 0.0 0.0 0.00 0.00 0.00 1016.5
20260507131539 0 0.0 0.0 0.00 0.00 0.00 1016.2
20260507130043 0 0.0 0.0 0.00 0.00 0.00 1016.1
20260507124530 0 0.0 0.0 0.00 0.00 0.00 1016.2
20260507123029 0 0.0 0.0 0.00 0.00 0.00 1016.3
20260507121521 0 0.0 0.0 0.00 0.00 0.00 1016.4
20260507120017 0 0.0 0.0 0.00 0.00 0.00 1016.4
20260507114512 0 0.0 0.0 0.00 0.00 0.00 1016.4
20260507113007 0 0.0 0.0 0.00 0.00 0.00 1016.0
20260507111504 0 0.0 0.0 0.00 0.00 0.00 1016.1
20260507104559 50 186 6.0 16.0 0.00 0.00 0.00 81 1016.2
20260507103056 51 218 9.0 19.0 0.00 0.00 0.00 80 1016.2
20260507101553 52 246 13.0 19.0 0.00 0.00 0.00 79 1016.1
20260507100051 52 219 11.0 18.0 0.00 0.00 0.00 79 1016.3
20260507094553 52 227 15.0 20.0 0.00 0.00 0.00 77 1016.3
20260507093048 53 248 14.0 23.0 0.00 0.00 0.00 76 1016.1
20260507091547 53 241 14.0 20.0 0.00 0.00 0.00 75 1016.1
20260507090044 53 242 14.0 19.0 0.00 0.00 0.00 74 1016.2
20260507084551 53 250 15.0 23.0 0.00 0.00 0.00 74 1016.2
20260507083047 52 219 7.0 15.0 0.00 0.00 0.00 72 1016.2
20260507081538 52 247 10.0 15.0 0.00 0.00 0.00 73 1016.1
20260507080040 53 234 11.0 16.0 0.00 0.00 0.00 71 1016.1
20260507074540 54 226 13.0 19.0 0.00 0.00 0.00 70 1016.0
20260507073032 53 234 12.0 15.0 0.00 0.00 0.00 71 1016.0
20260507071539 53 224 9.0 16.0 0.00 0.00 0.00 69 1015.9
20260507070025 54 226 12.0 18.0 0.00 0.00 0.00 67 1015.9
20260507064523 54 233 8.0 14.0 0.00 0.00 0.00 67 1016.0
20260507063026 54 232 9.0 17.0 0.00 0.00 0.00 66 1015.8
20260507061522 53 232 8.0 10.0 0.00 0.00 0.00 69 1015.7
20260507060020 54 223 8.0 12.0 0.00 0.00 0.00 67 1015.8
20260507054520 54 213 11.0 12.0 0.00 0.00 0.00 66 1015.9
20260507053019 56 207 4.0 6.0 0.00 0.00 0.00 62 1016.0
20260507051518 57 223 5.0 15.0 0.00 0.00 0.00 60 1015.9
20260507050017 58 269 12.0 19.0 0.00 0.00 0.00 58 1015.8
20260507044516 58 243 13.0 17.0 0.00 0.00 0.00 57 1015.7
20260507043016 60 239 12.0 19.0 0.00 0.00 0.00 56 1015.7
20260507041515 61 256 16.0 22.0 0.00 0.00 0.00 55 1015.4
20260507040016 62 262 14.0 25.0 0.00 0.00 0.00 54 1015.3
20260507034518 62 250 17.0 27.0 0.00 0.00 0.00 53 1015.0
20260507033014 63 262 17.0 26.0 0.00 0.00 0.00 53 1014.7
20260507031513 64 254 19.0 25.0 0.00 0.00 0.00 52 1014.4
20260507030014 65 250 17.0 25.0 0.00 0.00 0.00 50 1014.5
20260507024513 66 257 18.0 23.0 0.00 0.00 0.00 47 1014.2
20260507023012 67 243 18.0 25.0 0.00 0.00 0.00 44 1014.2
20260507021515 67 254 19.0 26.0 0.00 0.00 0.00 43 1014.2
20260507020011 68 254 17.0 24.0 0.00 0.00 0.00 41 1014.1
20260507014510 69 262 17.0 24.0 0.00 0.00 0.00 38 1014.0
20260507013010 70 259 17.0 23.0 0.00 0.00 0.00 36 1013.9
20260507011516 71 256 17.0 25.0 0.00 0.00 0.00 35 1013.9
20260507010008 72 253 19.0 28.0 0.00 0.00 0.00 32 1014.0
20260507004511 73 254 16.0 23.0 0.00 0.00 0.00 32 1013.9
20260507003009 74 250 13.0 21.0 0.00 0.00 0.00 32 1013.8
20260507001507 75 249 14.0 23.0 0.00 0.00 0.00 30 1013.7
20260507000006 77 260 15.0 21.0 0.00 0.00 0.00 29 1013.7
20260506234509 76 258 20.0 28.0 0.00 0.00 0.00 26 1013.9
20260506233005 75 268 13.0 20.0 0.00 0.00 0.00 28 1013.9
20260506231503 76 289 13.0 23.0 0.00 0.00 0.00 27 1013.8
20260506230003 77 264 17.0 26.0 0.00 0.00 0.00 25 1013.9
20260506224502 80 258 15.0 21.0 0.00 0.00 0.00 23 1014.1
20260506223001 83 254 15.0 23.0 0.00 0.00 0.00 20 1014.2
20260506221601 80 239 15.0 26.0 0.00 0.00 0.00 21 1014.2
20260506220108 81 254 16.0 24.0 0.00 0.00 0.00 25 1014.3